Tracking 19562 objects as of 24-Mar-2019
HD Live streaming from Space Station
objects crossing your sky now

USA 67

Track USA 67 now!
USA 67 is classified as:


NORAD ID: 20963
Int'l Code: 1990-097B
Perigee: 36,214.0 km
Apogee: 36,335.8 km
Inclination: 16.5 °
Period: 1,460.7 minutes
Semi major axis: 42645 km
RCS: Unknown
Launch date: November 15, 1990
Source: United States (US)
Launch site: AIR FORCE EASTERN TEST RANGE (AFETR)

$1 billion satellite; resolution of 5-6 inches.
aabbcc
Your satellite tracking list
Your tracking list is empty




NASA's NSSDC Master Catalog

Two Line Element Set (TLE):
1 20963U 90097B   19025.70732879 0.00000000  00000-0  00000-0 0    08
2 20963  16.4944 357.9809 0014279 229.7183 130.1688  0.98579545    05
Source of the keplerian elements: McCants